[[{"header":{"parameterUnit":"m.s-1","parameterCategory":1,"la1":30.2991,"la2":30.254,"lo1":-89.0895,"lo2":-89.0444,"dy":0.0017,"dx":0.0017,"nx":28,"ny":28,"refTime":"2025-01-22T03:00:00:Z","depth":0,"parameterNumber":2,"parameterNumberName":"U-component_of_WINDS"},"data":[0,0,0,0,0,0,0,0,0,0,0,0,0,0,0,0,0,0,0,0,0,0,0,0,0,0,0,0,0,0,0,0,0,0,0,0,0,0,0,0,0,0,0,0,0,0,0,0,0,0,0,0,0,0,0,0,0,0,-1.5597,-1.5599,0,-1.5755,-1.5756,-1.5758,-1.5765,-1.5763,-1.5761,-1.5759,-1.5925,-1.5931,-1.5937,0,0,0,0,0,0,0,0,0,0,0,0,0,-1.5305,-1.531,-1.5597,-1.5599,-1.5601,-1.5754,-1.5757,-1.5759,-1.5765,-1.5763,-1.5761,-1.5759,-1.5923,-1.5931,-1.5938,0,0,0,0,0,0,0,0,0,0,0,0,0,-1.5444,-1.5312,-1.5597,-1.5623,-1.5626,-1.5754,-1.5757,-1.5759,-1.5766,-1.5763,-1.576,-1.5757,-1.5921,-1.593,-1.5939,-1.6053,0,0,-1.5967,-1.5971,0,0,0,0,0,0,0,0,-1.5436,-1.5455,-1.5617,-1.5621,-1.5626,-1.5737,-1.5714,-1.5858,-1.5766,-1.5713,-1.5759,-1.5756,-1.5865,-1.5879,-1.5915,-1.606,-1.6068,-1.5968,-1.5974,-1.5978,-1.598,0,0,0,0,0,0,0,-1.5427,-1.5448,-1.566,-1.5619,-1.5625,-1.5627,-1.5644,-1.5742,-1.5803,-1.5717,-1.5718,-1.5737,-1.5867,-1.5906,-1.5919,-1.607,-1.5968,-1.5976,-1.5982,-1.5985,-1.6316,-1.6319,0,0,0,0,0,0,-1.5411,-1.544,-1.5655,-1.5664,-1.5522,-1.5635,-1.5654,-1.5704,-1.5802,-1.5814,-1.5739,-1.5736,-1.5891,-1.5908,-1.5925,-1.6065,-1.5978,-1.5986,-1.5992,-1.6313,-1.6317,-1.6321,0,0,0,0,0,0,-1.5405,-1.543,-1.5648,-1.5552,-1.558,-1.5643,-1.57,-1.5709,-1.5748,-1.5818,-1.583,-1.5767,-1.589,-1.5912,-1.602,-1.6071,-1.5991,-1.5999,-1.6309,-1.6314,-1.6319,-1.6345,0,0,0,0,0,0,-1.5397,-1.5428,-1.5471,-1.5553,-1.5585,-1.5741,-1.5703,-1.5714,-1.5763,-1.5761,-1.5848,-1.5859,-1.5889,-1.6007,-1.603,-1.6082,-1.6006,-1.6305,-1.6312,-1.6317,-1.634,-1.635,-1.6359,0,0,0,0,0,-1.5386,-1.5474,-1.5474,-1.55,-1.5641,-1.5744,-1.5762,-1.5794,-1.5767,-1.5812,-1.5857,-1.5857,-1.606,-1.6018,-1.6044,-1.6099,-1.6302,-1.631,-1.6317,-1.6336,-1.6348,-1.6359,0,0,0,0,0,0,-1.5399,-1.5485,-1.5486,-1.5602,-1.5665,-1.5744,-1.5802,-1.5806,-1.5879,-1.5874,-1.5911,-1.5931,-1.6039,-1.608,-1.603,-1.6214,-1.6178,-1.6191,-1.6184,-1.6197,-1.6206,-1.6195,-1.6014,0,0,0,0,0,-1.5414,-1.5489,-1.5561,-1.5657,-1.5688,-1.5739,-1.5785,-1.5804,-1.5871,-1.5898,-1.5952,-1.6018,-1.6097,-1.6149,-1.6225,-1.6345,-1.6364,-1.6396,-1.6405,-1.6413,-1.6424,-1.6491,-1.6506,-1.6344,-1.6344,-1.6344,0,0,-1.5449,-1.5505,-1.5551,-1.5661,-1.5712,-1.579,-1.5762,-1.5846,-1.5905,-1.5912,-1.6018,-1.6058,-1.6135,-1.625,-1.6303,-1.6287,-1.6473,-1.6422,-1.6427,-1.6435,-1.65,-1.6515,-1.6529,-1.6349,-1.6348,-1.6348,0,0,-1.5552,-1.5601,-1.5687,-1.5738,-1.5814,-1.5847,-1.5867,-1.5945,-1.5972,-1.6078,-1.6085,-1.6155,-1.6291,-1.6345,-1.639,-1.6511,-1.6514,-1.6534,-1.6585,-1.6649,-1.6662,-1.6674,-1.6718,-1.6733,-1.6545,-1.6545,-1.6545,0,-1.5586,-1.5703,-1.5731,-1.5814,-1.5863,-1.587,-1.5957,-1.6005,-1.6104,-1.6138,-1.6117,-1.6286,-1.6338,-1.6466,-1.6495,-1.6531,-1.6556,-1.6526,-1.6658,-1.6669,-1.6681,-1.6723,-1.674,-1.6547,-1.6547,-1.6547,-1.6547,0,-1.5741,-1.5821,-1.5881,-1.5974,-1.6029,-1.6114,-1.6156,-1.6208,-1.622,-1.6255,-1.6363,-1.6425,-1.6514,-1.6545,-1.6559,-1.6675,-1.6663,-1.6649,-1.6615,-1.6698,-1.6739,-1.6755,-1.655,-1.655,-1.6549,-1.6548,0,0,-1.586,-1.5965,-1.5986,-1.6028,-1.6112,-1.6175,-1.626,-1.6345,-1.639,-1.6456,-1.653,-1.6642,-1.663,-1.6681,-1.6701,-1.6757,-1.6849,-1.6737,-1.674,-1.6757,-1.6981,-1.6993,-1.7011,-1.685,-1.6853,-1.6856,-1.6976,0,-1.5974,-1.6124,-1.6151,-1.6282,-1.6357,-1.6364,-1.6438,-1.6497,-1.6532,-1.6601,-1.6639,-1.6719,-1.6696,-1.6727,-1.6782,-1.6826,-1.6895,-1.6818,-1.6921,-1.6924,-1.6904,-1.7032,-1.7045,-1.7155,-1.6991,-1.6994,-1.6996,0,-1.6128,-1.6196,-1.6335,-1.6407,-1.6439,-1.6506,-1.6585,-1.6651,-1.6718,-1.6739,-1.6795,-1.6807,-1.6896,-1.6855,-1.6978,-1.6925,-1.6968,-1.6996,-1.7001,-1.7014,-1.6967,-1.7051,-1.719,-1.7208,-1.7021,-1.7019,-1.7017,0,-1.6203,-1.6329,-1.6429,-1.6464,-1.655,-1.6597,-1.6635,-1.6699,-1.6748,-1.6818,-1.685,-1.6929,-1.6974,-1.7035,-1.7069,-1.7035,-1.7191,-1.7152,-1.7212,-1.7211,-1.7247,-1.7245,-1.7398,-1.7271,-1.727,-1.727,-1.727,0,-1.6329,-1.6414,-1.6463,-1.6525,-1.662,-1.6649,-1.6743,-1.6781,-1.6837,-1.6907,-1.6916,-1.6982,-1.7021,-1.7092,-1.7119,-1.7218,-1.7237,-1.7257,-1.7264,-1.7258,-1.7256,-1.7289,-1.7284,-1.7274,-1.7273,-1.7273,-1.7272,0,-1.643,-1.6466,-1.6575,-1.6647,-1.6667,-1.6734,-1.6796,-1.6856,-1.6888,-1.6976,-1.6998,-1.705,-1.7134,-1.7173,-1.7277,-1.7295,-1.7408,-1.7408,-1.7385,-1.7388,-1.7447,-1.7441,-1.7629,-1.7655,-1.7508,-1.7509,-1.751,0,-1.651,-1.6575,-1.6652,-1.6699,-1.6738,-1.6812,-1.6862,-1.6892,-1.6943,-1.7023,-1.7074,-1.7158,-1.7227,-1.736,-1.7408,-1.7487,-1.7491,-1.7551,-1.7503,-1.7495,-1.7494,-1.7491,-1.7498,-1.7561,-1.7562,-1.7563,-1.7564,0,-1.6647,-1.6661,-1.6731,-1.6808,-1.6866,-1.6928,-1.6988,-1.7026,-1.7066,-1.7123,-1.7208,-1.7261,-1.7365,-1.7449,-1.7531,-1.7571,-1.7575,-1.7578,-1.7597,-1.7593,-1.7577,-1.7588,-1.7411,-1.7575,-1.7574,-1.7573,-1.7572,-1.7572,-1.6742,-1.68,-1.6863,-1.6941,-1.6989,-1.7045,-1.7105,-1.7143,-1.7214,-1.7301,-1.7314,-1.7405,-1.7469,-1.7579,-1.7622,-1.7694,-1.768,-1.7707,-1.7714,-1.7721,-1.7725,-1.7563,-1.7709,-1.7708,-1.7708,-1.7708,-1.7708,0,-1.6882,-1.6922,-1.6992,-1.7076,-1.7137,-1.7132,-1.7198,-1.725,-1.7329,-1.7388,-1.7454,-1.7551,-1.7631,-1.7684,-1.7765,-1.7812,-1.7816,-1.7833,-1.7831,-1.7841,-1.7732,-1.7708,-1.7828,-1.7828,-1.7828,-1.7828,-1.7828,-1.7828,-1.6962,-1.706,-1.7081,-1.7203,-1.7243,-1.7331,-1.7369,-1.7421,-1.7468,-1.7575,-1.7641,-1.7673,-1.773,-1.7815,-1.7888,-1.7901,-1.7932,-1.795,-1.7963,-1.7861,-1.7848,-1.7837,-1.7815,-1.7955,-1.7956,-1.8066,-1.8067,-1.8068]},{"header":{"parameterUnit":"m.s-1","parameterCategory":1,"la1":30.2991,"la2":30.254,"lo1":-89.0895,"lo2":-89.0444,"dy":0.0017,"dx":0.0017,"nx":28,"ny":28,"refTime":"2025-01-22T03:00:00:Z","depth":0,"parameterNumber":3,"parameterNumberName":"V-component_of_WINDS"},"data":[0,0,0,0,0,0,0,0,0,0,0,0,0,0,0,0,0,0,0,0,0,0,0,0,0,0,0,0,0,0,0,0,0,0,0,0,0,0,0,0,0,0,0,0,0,0,0,0,0,0,0,0,0,0,0,0,0,0,-8.4842,-8.4844,0,-8.5043,-8.5045,-8.5048,-8.4932,-8.4926,-8.4921,-8.4915,-8.5118,-8.5128,-8.5139,0,0,0,0,0,0,0,0,0,0,0,0,0,-8.4353,-8.4363,-8.4841,-8.4844,-8.4847,-8.5043,-8.5045,-8.5048,-8.4933,-8.4926,-8.4919,-8.4913,-8.5114,-8.5127,-8.514,0,0,0,0,0,0,0,0,0,0,0,0,0,-8.4561,-8.4366,-8.4841,-8.4813,-8.4812,-8.5042,-8.5045,-8.5049,-8.4934,-8.4926,-8.4918,-8.491,-8.511,-8.5126,-8.5141,-8.5409,0,0,-8.519,-8.5197,0,0,0,0,0,0,0,0,-8.4549,-8.4579,-8.4815,-8.4815,-8.4815,-8.4954,-8.4947,-8.517,-8.4937,-8.4888,-8.4915,-8.4906,-8.507,-8.5089,-8.5145,-8.5419,-8.5427,-8.5192,-8.5201,-8.5208,-8.5213,0,0,0,0,0,0,0,-8.4535,-8.4569,-8.4921,-8.4818,-8.4819,-8.4789,-8.4809,-8.4989,-8.5024,-8.4892,-8.4884,-8.4909,-8.5068,-8.513,-8.5149,-8.543,-8.5191,-8.5205,-8.5215,-8.5221,-8.5932,-8.5941,0,0,0,0,0,0,-8.4523,-8.4558,-8.4915,-8.4927,-8.4659,-8.4804,-8.4827,-8.4918,-8.5022,-8.5029,-8.4916,-8.4903,-8.5107,-8.513,-8.5155,-8.5475,-8.5208,-8.5223,-8.5232,-8.5923,-8.5934,-8.5944,0,0,0,0,0,0,-8.4513,-8.4556,-8.4906,-8.4741,-8.4783,-8.4822,-8.4925,-8.4926,-8.4987,-8.504,-8.5045,-8.4973,-8.5101,-8.5133,-8.5347,-8.548,-8.523,-8.5245,-8.5912,-8.5927,-8.5939,-8.6117,0,0,0,0,0,0,-8.4499,-8.4553,-8.4656,-8.4744,-8.4792,-8.5097,-8.4933,-8.4936,-8.5016,-8.5001,-8.5095,-8.5102,-8.5097,-8.5324,-8.5363,-8.5498,-8.5257,-8.59,-8.5918,-8.5935,-8.61,-8.6136,-8.6166,0,0,0,0,0,-8.4482,-8.4698,-8.4662,-8.4706,-8.4923,-8.5105,-8.5132,-8.5123,-8.5027,-8.513,-8.5164,-8.5099,-8.546,-8.5347,-8.539,-8.5532,-8.5892,-8.5913,-8.5934,-8.6085,-8.6128,-8.6165,0,0,0,0,0,0,-8.4624,-8.4709,-8.467,-8.4921,-8.5007,-8.5085,-8.5215,-8.5169,-8.5283,-8.5264,-8.5246,-8.5268,-8.5491,-8.5532,-8.5405,-8.5795,-8.566,-8.5691,-8.5761,-8.5803,-8.5835,-8.5821,-8.527,0,0,0,0,0,-8.4684,-8.4826,-8.4892,-8.5107,-8.5152,-8.5177,-8.5255,-8.5241,-8.5328,-8.5364,-8.5413,-8.5499,-8.5631,-8.5719,-8.5844,-8.6105,-8.6123,-8.6223,-8.6257,-8.6284,-8.631,-8.645,-8.6496,-8.6013,-8.6013,-8.6013,0,0,-8.481,-8.4874,-8.4965,-8.5137,-8.5201,-8.5348,-8.5208,-8.5368,-8.5476,-8.5387,-8.5593,-8.5632,-8.5727,-8.5966,-8.6073,-8.6007,-8.6448,-8.631,-8.6332,-8.6344,-8.6477,-8.6522,-8.6563,-8.6027,-8.6025,-8.6023,0,0,-8.5115,-8.5178,-8.5363,-8.5431,-8.5531,-8.5546,-8.5591,-8.5677,-8.57,-8.5906,-8.5842,-8.5969,-8.6198,-8.6268,-8.6333,-8.6664,-8.6608,-8.6705,-8.6879,-8.7016,-8.7054,-8.7088,-8.7205,-8.7248,-8.6731,-8.6732,-8.6732,0,-8.5259,-8.5478,-8.5464,-8.5631,-8.5707,-8.5634,-8.5821,-8.5887,-8.6023,-8.6077,-8.6001,-8.6286,-8.6345,-8.6598,-8.6679,-8.6735,-8.6784,-8.6694,-8.705,-8.7083,-8.7115,-8.7226,-8.7271,-8.6743,-8.6741,-8.674,-8.6739,0,-8.5649,-8.5802,-8.594,-8.6074,-8.6166,-8.6342,-8.6353,-8.6448,-8.6425,-8.6447,-8.6657,-8.6725,-8.6862,-8.6921,-8.69,-8.7172,-8.7127,-8.7052,-8.6916,-8.7172,-8.7277,-8.7319,-8.6759,-8.6755,-8.6751,-8.6749,0,0,-8.605,-8.6173,-8.6224,-8.6284,-8.6388,-8.6506,-8.6677,-8.6812,-8.6894,-8.6989,-8.7132,-8.7327,-8.7257,-8.7331,-8.7317,-8.7437,-8.7694,-8.7346,-8.7348,-8.7408,-8.7997,-8.8054,-8.8104,-8.7657,-8.7666,-8.7672,-8.7989,0,-8.6361,-8.6662,-8.6654,-8.6934,-8.7075,-8.7007,-8.7156,-8.7236,-8.7261,-8.7382,-8.7409,-8.7548,-8.7445,-8.749,-8.7605,-8.7638,-8.7812,-8.7615,-8.7789,-8.7795,-8.7768,-8.8159,-8.822,-8.8516,-8.803,-8.8037,-8.8042,0,-8.6764,-8.6875,-8.7169,-8.7252,-8.7311,-8.7446,-8.7568,-8.7686,-8.7774,-8.7783,-8.7867,-8.7834,-8.8006,-8.7865,-8.8101,-8.7968,-8.8038,-8.8065,-8.8076,-8.8092,-8.7935,-8.8185,-8.861,-8.8655,-8.8106,-8.8101,-8.8097,0,-8.7027,-8.7248,-8.7453,-8.7506,-8.7608,-8.7705,-8.7751,-8.7831,-8.7913,-8.8019,-8.8072,-8.8197,-8.8266,-8.8362,-8.8363,-8.826,-8.8602,-8.8461,-8.8614,-8.8614,-8.8689,-8.8685,-8.9131,-8.8735,-8.8734,-8.8733,-8.8732,0,-8.7375,-8.7558,-8.7572,-8.7698,-8.79,-8.7888,-8.8088,-8.8125,-8.8197,-8.8328,-8.8276,-8.8399,-8.8392,-8.8517,-8.8518,-8.8713,-8.8745,-8.8756,-8.8755,-8.8762,-8.876,-8.8808,-8.8787,-8.8745,-8.8742,-8.874,-8.8738,0,-8.7703,-8.772,-8.7938,-8.8017,-8.8041,-8.8187,-8.8254,-8.8373,-8.8393,-8.8559,-8.8597,-8.8629,-8.8773,-8.8782,-8.8949,-8.8949,-8.9186,-8.9162,-8.9157,-8.9153,-8.9305,-8.9291,-8.9798,-8.9864,-8.9424,-8.9429,-8.9432,0,-8.7924,-8.8063,-8.8158,-8.8242,-8.8295,-8.8432,-8.8515,-8.8508,-8.8596,-8.8707,-8.8812,-8.8951,-8.9063,-8.9296,-8.9332,-8.9459,-8.9437,-8.9606,-8.9456,-8.9458,-8.944,-8.9432,-8.9445,-8.9635,-8.964,-8.9644,-8.9647,0,-8.8316,-8.8317,-8.844,-8.8566,-8.8667,-8.8765,-8.8857,-8.8929,-8.8932,-8.9034,-8.9181,-8.9268,-8.9438,-8.9576,-8.97,-8.9746,-8.9698,-8.9694,-8.9736,-8.9745,-8.9737,-8.9744,-8.9237,-8.9683,-8.9679,-8.9677,-8.9675,-8.9673,-8.8597,-8.8717,-8.8803,-8.8941,-8.9009,-8.9096,-8.9212,-8.9246,-8.9369,-8.9508,-8.9496,-8.9659,-8.9742,-8.9903,-8.9959,-9.0085,-9.0028,-9.0089,-9.0104,-9.012,-9.0136,-8.9717,-9.0108,-9.0107,-9.0106,-9.0105,-9.0104,0,-8.8986,-8.9037,-8.9164,-8.9295,-8.9403,-8.9349,-8.9447,-8.9541,-8.9686,-8.9768,-8.9879,-9.0048,-9.0181,-9.0229,-9.0359,-9.0451,-9.0432,-9.0485,-9.0478,-9.049,-9.018,-9.013,-9.0498,-9.0498,-9.0498,-9.0498,-9.0498,-9.0498,-8.9201,-8.9402,-8.9413,-8.9647,-8.9696,-8.9857,-8.9917,-8.9997,-9.0062,-9.0253,-9.0365,-9.0395,-9.0463,-9.0597,-9.0717,-9.0727,-9.0778,-9.0841,-9.0842,-9.0551,-9.0512,-9.0474,-9.0427,-9.0851,-9.0852,-9.1141,-9.1144,-9.1146]}]]